BREEZE-KM R/B, 39486

Orbit data source: Space-Track

BREEZE-KM R/B, 39486 is space debris in LEO originally from a launch on Wed, 25 Dec 2013 UTC launched from the Plesetsk Missile And Space Complex (PKMTR). Debris objects in space refer to the collection of defunct objects orbiting the Earth. Examples of debris include non-operational satellites, rocket bodies, and fragments generated from explosions, collisions, or faulty payload assembly.

Loading next visibility...
Identifier
39486, 2013-076D
Orbit
LEO
Country
Flag of CISCIS
Related business
Manufacturer
Khrunichev
Mission
Spacecraft
Bus & Motor
BRIZ, S5.92
Mass
2,370 kg wet, 2,370 kg dry
Launch date (UTC)
2013-12-25 (13 years ago)
Launch vehicle
Unknown
Launch site
Plesetsk Missile And Space Complex (PKMTR)
Object type
Payload
Rocket body
Debris
Shape & HBR
Hex Cyl + 1 Rod, 2.4 m
Radar Cross Section
10.190 m², Large (>1 m²)

Expand to show TLE details & history
Last TLE update: 8 hours ago

TLE from 8 hours ago
0 BREEZE-KM R/B
1 39486U 13076D   26255.93661849 -.00000012  00000-0 -93623-4 0  9995
2 39486  82.4781 248.2118 0233389 155.5506 205.6882 12.82992808595507
Epoch: 2026-09-12T22:28Z
TLE epoch observation values (Epoch: 2026-09-12T22:28:43.837Z)
Latitude
-0.00003°
Longitude
-80.90932°
Altitude
1,495.123 km
Speed
7.041 km/s
True Right ascension
16h 32m 50s
True Declination
0° 00' 00"
Sunlit
Object was in daylight at epoch
Visualization orbit readout
Latitude
Unknown
Longitude
Unknown
Altitude
Unknown
Speed
Unknown
Apparent Right ascension
Unknown
Apparent Declination
Unknown
Sunlit
N/A
Visualization observer readout
Local Sidereal Time
23:20:37
Azimuth
Unknown
Elevation
Unknown
Doppler factor
Unknown
Orbital elements
Apogee altitude
1,506.577 km
Perigee altitude
1,146.93 km
Semi-major axis
7,704.891 km
Eccentricity
0.02334
Inclination
82.4781°
RAAN
248.2118°
Arg. of periapsis
155.5506°
True anomaly
204.5587°
Mean anomaly
205.6882°
Eccentric anomaly
205.12052°
Mean motion
3.20918 °/min
Orbital period
112.18 mins
BSTAR
-0.000093623
Loading maneuver chart data...
Computing Atmospheric mass density...
Loading historical data...
Loading historical data...
Loading historical data...
Loading historical data...
Loading historical data...
Loading historical data...
Loading historical data...

Documentation

Showing up to 5 results
|